www.pogodaiklimat.ru

Погода и климат >> Архив погоды >> Киргизия >> Кара-Балта


ПОГОДА в Кара-Балте

  • Прогноз погоды в Кара-Балте
  • Монитор погоды в Кара-Балте

АРХИВ ПОГОДЫ в Кара-Балте

Время (UTC), дата Ветер
(напр.,м/с)
 
Видим.   Явления Облачность Т
(С)
Тd
(С)
f
(%)
Тe
(С)
Тes
(С)
Комфортность P
(гПа)
Po
(гПа)
Тmin
(С)
Tmax
(С)
R
(мм)
R24
(мм)
S
(см)
15 11.09 Ю 2 н/о ясно +14.4 +8.5 68 +14 +14 1024.8 935.1 +20.6
18 11.09 Ю 2 н/о ясно +11.8 +6.1 68 +11 +11 1024.6 934.1
03 12.09 З 2 50 км ясно +15.4 +5.0 50 +15 +19 1022.6 933.3 +8.9
06 12.09 С 2 50 км ясно +19.9 +5.8 40 +21 +33 комфорт 1019.8 932.0
09 12.09 С 2 50 км 1/0
[Ci fib]
+21.4 +2.5 29 +21 +31 комфорт 1019.6 932.2
12 12.09 С 2 50 км ясно +22.1 +2.1 27 +22 +23 комфорт 1017.9 930.9
15 12.09 Ю 2 н/о ясно +15.6 +5.6 51 +16 +16 1020.4 931.4 +22.3
18 12.09 Ю 2 н/о ясно +13.8 +3.6 50 +13 +13 1020.0 930.5
21 12.09 Ю 2 н/о ясно +12.2 +4.5 59 +11 +11 1018.6 928.7
00 13.09 Ю 2 н/о ясно +9.7 +4.8 71 +8 +8 1019.8 929.0
03 13.09 Ю 2 50 км ясно +17.6 +4.6 42 +18 +21 1017.4 929.2 +9.7
06 13.09 С 2 50 км ясно +20.4 +4.3 35 +22 +33 комфорт 1018.1 930.6
09 13.09 С 2 50 км ясно +23.7 +3.0 26 +23 +33 комфорт 1016.6 930.2
12 13.09 С 2 50 км ясно +23.9 +5.0 29 +24 +25 комфорт 1016.8 920.2
15 13.09 Ю 2 н/о ясно +16.7 +5.3 47 +17 +17 1018.8 930.2 +23.8
18 13.09 Ю 2 н/о ясно +14.2 +6.1 58 +14 +14 1018.6 929.3
21 13.09 штиль 0 н/о ясно +12.7 +5.0 59 +12 +12 1016.9 927.3
00 14.09 Ю 2 н/о ясно +11.6 +3.8 59 +11 +11 1017.3 927.3
03 14.09 В 2 50 км 9/3 1000 м
[Cu med, cong Ac und Ci]
+18.9 +7.3 47 +20 +21 1016.0 928.3 +11.1
06 14.09 С 2 50 км 8/0
[Ci]
+22.8 +3.8 29 +23 +32 комфорт 1014.4 928.0
09 14.09 С 2 50 км 3/0
[Ac trans Ci fib]
+25.2 +2.5 23 +24 +33 комфорт 1012.9 927.2
12 14.09 З 2 50 км 9/5 600 м
[Cb cap Ac und Ci]
+24.3 +4.5 28 +24 +24 комфорт 1014.3 928.2
15 14.09 Ю 2 н/о 6/0
[Ac und]
+18.4 +8.8 54 +19 +19 1015.8 928.0 +25.6
18 14.09 Ю 2 н/о 6/0
[Ac und]
+17.1 +4.1 42 +17 +17 1014.9 926.8
21 14.09 Ю 2 н/о 9/0
[Ac und]
+17.0 +4.3 43 +17 +17 1014.1 926.0
00 15.09 З 2 н/о 10/10 600 м
[Sc]
+19.2 +4.5 38 +20 +20 1015.5 927.9
03 15.09 Ю 4 50 км {ливн. осадки} 9/8 600 м
[Cb cap Ac und]
+18.9 +4.6 39 +19 +19 1014.4 926.9 +15.1 0.8
06 15.09 Ю 2 50 км {ливн. осадки} 9/6 600 м
[Cb cap Ci]
+21.8 +11.0 50 +24 +28 комфорт 1014.2 927.6
09 15.09 З 4 50 км 9/8 600 м
[Cb cap Ci]
+21.6 +6.7 38 +22 +23 комфорт 1014.6 927.8
12 15.09 З 4 10 км слаб. ливневой дождь 10/10 600 м
[Cb cap]
+15.4 +11.9 80 +14 +14 1018.5 929.8
15 15.09 З 4 н/о ливневой дождь 10/10 600 м
[Cb cap]
+12.2 +11.4 95 +10 +10 1022.9 932.9 +23.2 3
18 15.09 Ю 2 н/о ливневой дождь 10/10 600 м
[Cb cap]
+12.1 +9.9 86 +11 +11 1021.5 931.5 3
21 15.09 Ю 2 н/о {ливн. осадки} 6/0
[Ci]
+12.8 +6.8 67 +12 +12 1020.3 930.5
00 16.09 Ю 2 н/о {ливн. осадки} 3/0
[Ac trans]
+11.8 +5.3 64 +11 +11 1020.4 930.3
03 16.09 Ю 2 50 км 1/0
[Ci fib]
+17.2 +6.2 48 +18 +20 1018.5 930.1 +11.3 4
06 16.09 СЗ 2 50 км 4/4 1000 м
[Cu med, cong]
+21.0 +5.3 36 +22 +29 комфорт 1017.3 930.1
09 16.09 С 4 50 км 9/8 1000 м
[Cb cap]
+22.0 +4.0 31 +22 +23 комфорт 1017.5 930.5
12 16.09 Ю 4 50 км 9/9 1000 м
[Cb cap]
+20.6 +4.6 35 +21 +21 комфорт 1018.0 930.7
15 16.09 Ю 2 50 км 9/9 600 м
[Cb cap]
+18.3 +5.9 44 +19 +19 1019.6 931.4 +22.6
18 16.09 Ю 2 н/о 9/9 600 м
[Cb cap]
+17.8 +3.8 39 +18 +18 1019.2 930.9
21 16.09 Ю 2 н/о 6/0
[Ac und]
+14.2 +6.5 60 +14 +14 1021.7 932.2
00 17.09 Ю 2 н/о 9/6
[Sc]
+13.6 +6.8 63 +13 +13 1052.5 932.8
03 17.09 Ю 2 50 км 1/0
[Ci fib]
+17.8 +5.0 43 +18 +21 1021.9 933.4 +12.0
06 17.09 СВ 2 50 км 3/0
[Ci fib]
+21.5 +3.6 31 +22 +32 комфорт 1022.0 934.5
09 17.09 В 2 50 км 3/0
[Ci fib]
+22.8 +5.0 31 +23 +32 комфорт 1020.3 933.3
12 17.09 С 4 50 км ясно +22.5 +3.8 29 +22 +23 комфорт 1018.7 931.8
15 17.09 ЮВ 2 н/о ясно +15.6 +6.8 56 +16 +16 1020.8 931.8 +23.1
03 18.09 штиль 0 50 км ясно +18.4 +5.0 41 +19 +22 1014.9 927.2 +8.3

 

Местоположение метеостанции Кара-Балта (Чуйская область, Киргизия): широта 42.80 долгота 73.82 высота над уровнем моря 771 м.

В архиве по умолчанию представлена погода в Кара-Балте за последнюю неделю. Архивные данные за месяц целиком и за предыдущие месяцы, начиная с января 2011 года, Вы можете получить, выбрав интересующий диапазон дат из раскрывающегося списка и нажав кнопку "Ввод!".


*Определитесь, кто Вы:
робот инопланетянин человек

Внимание! Время в таблицах - всемирное. Для получения местного времени необходимо прибавить поправку, которая равна 5 ч.

Смотрите также архив погоды в соседних городах и на ближайших метеорологических станциях:

Погода в Яны-Жере (Чуйская область, Киргизия) (27 км)
Погода в Тео-Ашуу (Чуйская область, Киргизия) (36 км)
Погода в Мерке (Жамбылская область, Казахстан) (53 км)
Погода в Байтике (Чуйская область, Киргизия) (58 км)
Погода в Бишкеке (город Бишкек, Киргизия) (58 км)
Погода в Бериктасе (Жамбылская область, Казахстан) (71 км)
Погода в Сусамыре (Чуйская область, Киргизия) (73 км)
Погода в Иссык-Ате (город Бишкек, Киргизия) (86 км)
Погода в Кулане (Жамбылская область, Казахстан) (89 км)
Погода в Толе Би (Жамбылская область, Казахстан) (100 км)

Пояснения к столбцам:

Ветер - указаны скорость ветра в м/с - средняя за 10 мин, порывы в срок и между сроками (в фигурных скобках) и направление, откуда дует ветер: С - северный, СВ - северо-восточный, В - восточный, ЮВ - юго-восточный, Ю - южный, ЮЗ - юго-западный, З - западный, СЗ - северо-западный.
Видимость - горизонтальная дальность видимости в метрах или километрах. При видимости от 1 до 10 км при отсутствии осадков обычно наблюдается дымка, при ухудшении видимости до 1 км и менее - туман. В сухую погоду видимость может ухудшаться дымом, пылью или мглою.
Явления - указаны атмосферные явления, наблюдавшиеся в срок или в последний час перед сроком; фигурными скобками обозначены явления, наблюдавшиеся между сроками (за 1-3 часа до срока); квадратными скобками обозначены град или гололедные отложения с указанием их диаметра в мм.
Облачность - указаны через наклонную черту общая и нижняя облачность в баллах и высота нижней границы облаков в метрах; квадратными скобками обозначены формы облаков: Ci - перистые, Cs - перисто-слоистые, Cc - перисто-кучевые, Ac - высококучевые, As - высокослоистые, Sc - слоисто-кучевые, Ns - слоисто-дождевые, Cu - кучевые, Cb - кучево-дождевые. Подробнее классификацию облаков см. в Атласе облаков (PDF).
T - Температура воздуха - температура, измеренная на высоте 2 м над землей.
Td - Температура точки росы - температура, при понижении до которой содержащийся в воздухе водяной пар достигнет насыщения.
f - Относительная влажность воздуха - влажноcть воздуха, измеренная на высоте 2 м над землей.
Te - Эффективная температура - температура, которую ощущает одетый по сезону человек в тени. Характеристика душности погоды. При расчете учитывается влияние влажности воздуха и скорости ветра на теплоощущения человека.
Tes - Эффективная температура на солнце - температура, которую ощущает человек, с поправкой на солнечный нагрев. Характеристика знойности погоды. Зависит от высоты солнца над горизонтом, облачности и скорости ветра. Ночью, в пасмурную погоду, а также при ветре 12 м/с и более поправка равна нулю.
P - Атмосферное давление - приведенное к уровню моря атмосферное давление.
Po - Атмосферное давление - измеренное на уровне метеостанции атмосферное давление.
Tmin - Минимальная температура - минимум температуры воздуха на высоте 2 м над землей.
Tmax - Максимальная температура - максимум температуры воздуха на высоте 2 м над землей.
R - Количество осадков - Количество выпавших осадков за период времени, мм. При наведении курсора мыши на число - период времени, за который выпало указанное количество осадков.
R24 - Количество осадков - Количество выпавших осадков за 24 часа, мм.
S - Снежный покров - Высота снежного покрова, см. При наведении курсора мыши на число - состояние снежного покрова и степень покрытия местности в баллах.